Wind_Speed
16 18 18 15 12 15 12 12 9 10 13 11 12 12 13 14 12 10 12 11 11 12 11 14 16 15 13 14 25 27 22 19 13
17 14 14 15 17 14 14 13 9 6 9 11 12 12 14 12 12 12 12 13 13 13 13 14 17 19 14 13 16 29 23 20 17
18 14 17 13 14 12 14 12 7 5 8 10 9 8 10 9 11 12 11 14 15 15 15 15 17 20 19 16 13 25 24 23 20
12 22 16 15 12 13 13 13 8 6 7 9 9 10 11 12 13 14 13 14 17 19 18 17 17 20 22 18 18 20 19 27 24
16 18 21 17 16 13 14 12 11 9 8 9 11 11 12 13 14 16 16 16 18 20 23 21 20 19 22 20 20 21 17 27 27
15 11 12 17 16 16 16 14 14 16 14 13 15 15 15 15 18 18 18 19 19 20 22 23 22 20 22 22 22 22 25 29 28
14 13 7 10 12 13 14 15 14 18 18 18 18 15 16 18 19 19 20 21 19 18 20 25 27 24 25 23 23 22 23 27 27
16 15 11 8 12 11 14 16 13 11 15 17 20 16 15 18 21 23 24 25 22 20 21 25 29 28 25 24 24 20 21 22 18
12 18 17 15 11 14 15 15 16 12 17 19 22 18 18 20 27 30 28 23 21 23 23 25 27 28 23 24 23 24 22 28 25
20 25 19 19 17 16 16 16 16 14 18 22 22 19 23 27 25 22 20 18 21 20 22 27 28 27 24 22 26 21 27 34 34
32 29 26 22 19 16 18 18 13 11 14 20 21 21 24 20 14 12 13 18 19 19 23 27 26 26 23 24 24 26 28 28 34
31 30 28 28 20 17 15 18 13 9 14 21 21 20 24 19 14 13 14 16 19 20 23 23 24 23 23 22 24 23 26 30 32
28 29 23 24 23 19 15 15 11 12 17 18 19 18 18 18 16 11 14 16 18 20 22 23 23 24 24 26 24 24 27 41 34
31 29 22 22 23 23 19 16 14 13 16 18 17 16 16 15 14 13 17 19 17 17 17 20 22 25 27 27 28 30 30 47 33
29 25 23 24 24 24 21 19 19 14 17 21 16 16 11 8 5 6 12 14 17 16 15 18 22 25 28 27 26 26 50 38 38
28 25 24 24 25 23 22 21 21 18 20 20 17 17 12 12 10 11 10 10 15 16 14 16 18 20 24 27 26 23 37 32 35
28 27 26 26 26 24 22 21 22 21 21 22 20 20 20 17 17 13 13 12 13 13 14 17 17 26 24 24 22 38 33 30 33
31 28 27 28 29 28 24 24 24 23 23 25 24 23 25 23 21 17 18 7 11 15 14 13 13 16 19 19 30 44 34 30 32
33 32 29 30 31 30 27 26 26 26 25 29 29 26 25 23 21 21 22 16 14 13 12 13 19 13 18 21 32 34 33 33 35
34 37 35 33 34 31 29 31 30 30 27 21 31 30 26 30 24 23 25 26 21 12 11 15 10 10 18 20 23 23 26 27 26
Wind_Direction
290 308 323 311 305 302 299 300 289 265 252 271 270 261 263 270 269 270 279 270 260 251 234 229 221 223 238 240 211 211 214 218 217
298 296 318 309 281 290 302 305 285 258 258 272 271 274 274 271 273 271 269 269 265 259 242 237 230 226 230 228 219 215 214 217 219
306 302 318 324 296 291 305 301 273 265 257 265 275 276 268 271 274 269 264 267 263 258 252 239 235 230 228 230 229 215 220 222 220
300 304 314 311 310 300 307 297 280 259 259 266 275 282 281 277 270 270 269 266 264 261 252 244 241 231 226 226 230 232 225 221 220
299 308 309 311 301 307 298 304 296 280 279 288 288 291 286 280 281 279 277 276 274 260 248 239 232 234 228 227 233 236 244 215 214
291 302 311 310 300 296 300 299 293 271 282 291 286 286 280 284 278 279 281 283 280 261 245 233 230 223 226 230 230 236 238 214 200
275 283 314 324 311 300 298 299 300 274 272 285 290 288 287 285 281 276 280 290 281 253 235 229 226 224 228 231 229 238 238 230 181
281 281 289 309 327 330 312 299 305 284 284 291 289 288 288 289 286 283 286 288 268 234 229 227 224 229 219 227 232 234 228 200 193
300 282 282 288 309 319 327 300 293 292 291 288 288 295 293 292 288 284 281 275 246 229 231 222 220 226 222 227 228 237 226 215 201
283 267 278 286 297 306 309 309 280 277 295 286 297 297 303 307 294 280 257 245 229 224 223 215 217 224 225 227 225 230 220 222 193
260 263 265 270 283 298 306 300 280 282 294 292 298 302 317 313 297 284 251 229 225 215 208 212 219 228 225 225 233 235 222 223 199
282 274 272 262 266 286 309 296 271 258 284 294 295 309 320 309 287 277 247 230 227 216 212 215 222 230 232 230 229 235 212 210 202
281 290 279 258 257 270 292 295 289 253 267 287 287 302 315 312 267 259 255 238 233 222 219 221 231 234 240 240 237 234 230 202 202
286 287 279 241 250 263 275 289 275 265 270 279 281 291 316 312 275 262 251 241 231 232 229 232 235 238 237 235 233 231 225 188 208
283 279 272 243 242 259 269 282 267 271 264 269 273 275 302 326 283 311 247 233 237 242 252 249 260 243 230 233 224 235 182 201 204
274 273 271 257 246 248 262 266 263 263 266 261 260 254 267 289 294 300 285 255 256 267 273 266 278 239 221 218 223 211 194 200 201
267 267 269 263 257 244 249 259 267 265 267 257 250 244 248 263 277 279 286 292 272 287 277 281 277 214 212 223 220 192 195 207 204
261 261 263 265 262 255 248 256 269 274 267 253 244 248 247 254 257 254 265 276 268 292 286 284 219 209 208 213 190 189 207 210 208
253 254 254 257 257 255 249 251 263 270 278 261 252 247 245 243 241 232 243 260 287 294 272 225 191 211 214 205 196 197 206 208 211
251 248 247 246 248 249 248 246 252 260 271 273 263 252 251 255 235 233 234 252 264 281 258 241 191 229 222 198 189 201 204 211 218
Height
5924 5923 5921 5917 5915 5913 5913 5912 5910 5910 5912 5912 5913 5914 5915 5915 5915 5915 5916 5916 5916 5916 5917 5919 5920 5921 5923 5924 5927 5932 5935 5939 5941
5920 5920 5920 5917 5915 5913 5911 5909 5907 5907 5908 5909 5910 5910 5911 5912 5912 5912 5912 5913 5914 5914 5914 5916 5917 5919 5920 5922 5924 5927 5932 5936 5938
5918 5917 5916 5915 5914 5911 5910 5908 5906 5906 5906 5906 5906 5907 5908 5908 5909 5909 5909 5910 5910 5911 5912 5912 5914 5916 5917 5920 5922 5923 5929 5933 5935
5917 5912 5912 5911 5911 5910 5908 5907 5905 5904 5904 5903 5903 5903 5904 5905 5904 5905 5905 5906 5906 5906 5908 5908 5910 5913 5914 5917 5919 5921 5924 5928 5930
5913 5911 5908 5908 5907 5906 5905 5904 5904 5903 5902 5902 5901 5900 5900 5900 5901 5900 5900 5901 5901 5901 5902 5904 5905 5908 5911 5913 5915 5917 5918 5922 5926
5910 5908 5906 5904 5903 5903 5902 5902 5901 5901 5900 5899 5898 5897 5896 5896 5895 5895 5895 5895 5895 5895 5896 5899 5901 5902 5907 5909 5912 5914 5916 5918 5920
5907 5905 5903 5902 5900 5898 5898 5897 5897 5896 5896 5895 5893 5892 5891 5891 5890 5889 5890 5889 5889 5889 5891 5894 5898 5898 5903 5905 5908 5909 5912 5912 5916
5904 5902 5901 5899 5898 5896 5894 5893 5892 5892 5892 5891 5889 5888 5887 5887 5886 5884 5883 5883 5882 5884 5885 5888 5892 5894 5898 5901 5903 5907 5909 5912 5916
5902 5898 5897 5897 5895 5894 5892 5889 5888 5888 5888 5887 5886 5884 5883 5882 5879 5877 5875 5875 5875 5879 5881 5884 5887 5890 5892 5897 5900 5903 5906 5909 5915
5896 5892 5893 5893 5892 5890 5888 5886 5884 5884 5883 5882 5881 5879 5877 5873 5869 5866 5866 5868 5871 5873 5876 5879 5883 5886 5888 5892 5896 5900 5902 5905 5911
5885 5887 5888 5888 5888 5887 5884 5881 5880 5879 5879 5878 5877 5875 5871 5867 5864 5863 5862 5865 5868 5870 5873 5877 5880 5880 5883 5888 5892 5895 5898 5901 5907
5879 5881 5882 5881 5882 5882 5881 5878 5875 5874 5874 5874 5873 5871 5867 5864 5863 5862 5862 5863 5866 5869 5871 5873 5877 5879 5881 5884 5888 5891 5895 5900 5904
5875 5873 5874 5875 5876 5877 5876 5875 5872 5871 5871 5870 5870 5868 5866 5863 5862 5861 5862 5863 5865 5867 5869 5870 5873 5875 5878 5881 5884 5887 5888 5893 5900
5870 5868 5867 5869 5871 5871 5872 5871 5868 5867 5866 5866 5866 5866 5864 5862 5860 5860 5861 5862 5862 5864 5866 5867 5868 5869 5872 5875 5878 5881 5885 5892 5897
5864 5862 5861 5863 5865 5866 5866 5866 5864 5863 5863 5862 5863 5864 5862 5861 5860 5860 5860 5860 5861 5861 5861 5863 5862 5862 5865 5869 5872 5875 5880 5887 5893
5857 5855 5855 5856 5858 5860 5860 5861 5859 5857 5857 5858 5859 5859 5860 5859 5860 5860 5860 5859 5860 5859 5857 5858 5856 5857 5860 5864 5867 5870 5878 5885 5890
5849 5849 5848 5849 5850 5852 5854 5854 5853 5852 5852 5852 5854 5854 5855 5855 5857 5858 5857 5856 5856 5856 5855 5854 5852 5856 5859 5862 5864 5870 5879 5884 5888
5841 5842 5842 5843 5843 5845 5847 5847 5847 5847 5847 5846 5848 5848 5849 5850 5851 5853 5854 5853 5853 5853 5852 5852 5852 5854 5857 5859 5862 5869 5877 5882 5885
5832 5833 5834 5835 5836 5836 5839 5841 5841 5841 5842 5842 5843 5844 5843 5843 5843 5845 5848 5850 5851 5851 5851 5852 5853 5856 5857 5858 5860 5866 5873 5878 5882
5822 5823 5825 5826 5827 5829 5831 5832 5833 5835 5836 5839 5839 5841 5840 5841 5838 5839 5841 5844 5846 5848 5850 5851 5853 5855 5856 5858 5861 5865 5871 5875 5880